Regional Weather Roundup
Issued by NWS Jackson, KY

Home | Current Version | Previous Version | Text Only | Print | Product List | Glossary On
Versions: 1 2 3 4 5 6 7 8 9 10 11 12 13 14 15 16 17 18 19 20 21 22 23 24 25 26 27
000
ASUS43 KJKL 251010
RWRJKL

EAST KENTUCKY HOURLY WEATHER ROUNDUP
NATIONAL WEATHER SERVICE JACKSON KY
500 AM EST SUN FEB 25 2018

NOTE: "FAIR" INDICATES FEW OR NO CLOUDS BELOW 12,000 FEET WITH
NO SIGNIFICANT WEATHER AND/OR OBSTRUCTIONS TO VISIBILITY.

* THESE REPORTS ARE NOT UNDER NWS QUALITY CONTROL AND MAY NOT
  REPORT WEATHER SUCH AS PRECIPITATION AND FOG.

KYZ079-080-083-085-087-088-110-112-115-119-120-251100
...EASTERN KENTUCKY...

CITY           SKY/WX    TMP DP  RH WIND       PRES   REMARKS
JACKSON        LGT RAIN  56  54  93 SW8       29.92R
LONDON         LGT RAIN  55  53  93 S8        29.94R
SOMERSET*      RAIN      54  54 100 S6        29.93S
MONTICELLO*    RAIN      55  53  93 SW13      29.95R
WILLIAMSBURG*  CLOUDY    54  54 100 S6        29.97R
MIDDLESBORO*   RAIN      56  56 100 CALM      29.97R
HARLAN APT*    CLOUDY    55  54  94 SW8       29.96R
PIKE CO APT*   RAIN      56  56 100 S6        29.92R
BIG SANDY APT* RAIN      59  59 100 SW7       29.91R
MOREHEAD APT*  CLOUDY    57  54  88 S16G23    29.84F
ASHLAND*       LGT RAIN  59  56  89 S10       29.79F
$$

KYZ035-036-041-042-044-050-067-078-099-251100
...CENTRAL KENTUCKY...

CITY           SKY/WX    TMP DP  RH WIND       PRES   REMARKS
MT STERLING*   CLOUDY    55  54  94 W10G22    29.86S
FLEMING/MASON* CLOUDY    58  56  94 S15       29.78F
DANVILLE*      LGT RAIN  54  52  94 W13G20    29.88R
LEXINGTON      CLOUDY    58  53  84 SW15G23   29.82F
FRANKFORT      CLOUDY    59  54  83 SW12      29.80R
LOUISVILLE     CLOUDY    56  50  80 W24G40    29.84R
LEBANON*       CLOUDY    55  54  94 S18       29.85R
GLASGOW*       CLOUDY   N/A N/A N/A SW9       29.91R
BOWLING GREEN    N/A     57  54  89 SW15      29.89R
$$

KYZ091>093-OHZ055-061-077-WVZ005-015-034-035-042-251100
...SOUTHERN OHIO/WEST VIRGINIA...

CITY           SKY/WX    TMP DP  RH WIND       PRES   REMARKS
COVINGTON      MOCLDY    59  52  77 W17G28    29.74R
COLUMBUS       CLOUDY    60  54  80 SW20G35   29.70R
DAYTON         CLOUDY    57  53  86 W40G51    29.72R
WILMINGTON       N/A     58  56  93 SW18G30   29.71R
HUNTINGTON     RAIN      58  55  90 S8        29.84R
CHARLESTON     RAIN      58  57  97 SW6       29.86S
BECKLEY        LGT RAIN  60  55  83 S7        29.88F
BLUEFIELD      CLOUDY    61  51  70 S6        29.92F
LOGAN CO APT*  LGT RAIN  61  57  88 SW12      29.90R
$$

VAZ002-007-008-TNZ017-027-036-066-071-251100
...SOUTHWEST VIRGINIA/EAST TENNESSEE...

CITY           SKY/WX    TMP DP  RH WIND       PRES   REMARKS
WISE*          HVY RAIN  55  55 100 NW12G18   29.98R
JONESVILLE*    RAIN      57  55  94 W8        29.98R
ABINGDON*      CLOUDY    64  57  77 NW3       29.93R
BRISTOL        CLOUDY    64  58  80 W6        29.92R
SEVIERVILLE*   CLOUDY    73  54  49 SW10G24   29.90F
KNOXVILLE      HVY RAIN  61  59  93 W29G37    29.96R FOG
LAFOLLETTE*    CLOUDY    59  57  94 VRB5G12   29.98R FOG
OAK RIDGE      RAIN      61  61 100 VRB6      29.96  FOG
CROSSVILLE     LGT RAIN  52  49  89 W8        30.00R
NASHVILLE      CLOUDY    56  53  90 S8        29.95S
$$

...KEY TO REMARKS...
VSB - VISIBILITY IN MILES
WCI - WIND CHILL INDEX
HX  - HEAT INDEX

$$




USA.gov is the U.S. government's official web portal to all federal, state and local government web resources and services.